Weather History for Andrews, TX

Change the Weather History Date:

Saturday, July 27, 2013

  Actual Average (KMAF) Record (KMAF)
Temperature  
Mean Temperature 78 °F 82 °F  
Max Temperature 90 °F 95 °F 106 °F (1995)
Min Temperature 65 °F 70 °F 60 °F (1973)
Cooling Degree Days 12 17  
Month to date cooling degree days 459  
Year to date cooling degree days 1309  
Since 1 June cooling degree days 920  
Growing Degree Days 28 (Base 50)    
Moisture  
Dew Point 55 °F    
Average Humidity 49    
Maximum Humidity 84    
Minimum Humidity 21    
Precipitation  
Precipitation 0.00 in 0.05 in 0.85 in (1955)
Month to date precipitation 1.59  
Year to date precipitation 7.65  
Sea Level Pressure  
Sea Level Pressure 30.13 in    
Wind  
Wind Speed 7 mph (East)    
Max Wind Speed 14 mph    
Max Gust Speed 20 mph    
Visibility 10 miles    
Events      
T = Trace of Precipitation, MM = Missing Value Source: NWS Daily Summary

Daily Weather History Graph

Daily Weather History Graph

Search for Another Location

Airport:

Trip Planner

Search our weather history database for the weather conditions in past years. The results will help you decide how hot, cold, wet, or windy it might be!

Date:

Astronomy

Jul. 27, 2013 Rise Set
Actual Time 7:01 AM CDT 8:51 PM CDT
Civil Twilight 6:34 AM CDT 9:18 PM CDT
Nautical Twilight 6:01 AM CDT 9:50 PM CDT
Astronomical Twilight 5:27 AM CDT 10:25 PM CDT
Moon No Moon Rise 12:20 PM CDT (7/27)
Length of Visible Light 14h 43m
Length of Day
13h 49m
Waning Gibbous, 70% of the Moon is Illuminated
Jul 27
Waning Gibbous
Jul 29
Last Quarter
Aug 6
New
Aug 14
First Quarter
Aug 20
Full

Hourly Weather History & Observations

Time (CDT) Temp. Heat Index Dew Point Humidity Pressure Visibility Wind Dir Wind Speed Gust Speed Precip Events Conditions
12:15 AM 77.2 °F - 61.7 °F 59% 30.19 in 10.0 mi East 8.1 mph - N/A   Clear
12:35 AM 77.0 °F - 61.7 °F 59% 30.19 in 10.0 mi East 8.1 mph - N/A   Clear
12:55 AM 76.3 °F - 61.9 °F 61% 30.19 in 10.0 mi ENE 6.9 mph - N/A   Clear
1:15 AM 75.6 °F - 62.1 °F 63% 30.18 in 10.0 mi ENE 9.2 mph - N/A   Clear
1:35 AM 75.2 °F - 62.1 °F 64% 30.18 in 10.0 mi ENE 8.1 mph - N/A   Clear
1:55 AM 74.5 °F - 62.1 °F 65% 30.18 in 10.0 mi ENE 10.4 mph - N/A   Clear
2:15 AM 73.9 °F - 61.9 °F 66% 30.18 in 10.0 mi ENE 9.2 mph - N/A   Clear
2:35 AM 73.6 °F - 61.9 °F 67% 30.19 in 10.0 mi East 5.8 mph - N/A   Clear
2:55 AM 73.0 °F - 61.9 °F 68% 30.18 in 10.0 mi East 3.5 mph - N/A   Clear
3:15 AM 72.0 °F - 61.7 °F 70% 30.17 in 10.0 mi ENE 5.8 mph - N/A   Clear
3:35 AM 71.2 °F - 61.7 °F 72% 30.17 in 10.0 mi ENE 5.8 mph - N/A   Clear
3:55 AM 70.5 °F - 61.7 °F 74% 30.17 in 10.0 mi ENE 5.8 mph - N/A   Clear
4:15 AM 70.2 °F - 61.7 °F 74% 30.15 in 10.0 mi ENE 3.5 mph - N/A   Clear
4:35 AM 69.3 °F - 61.3 °F 76% 30.16 in 10.0 mi ENE 4.6 mph - N/A   Clear
4:55 AM 69.4 °F - 61.3 °F 75% 30.17 in 10.0 mi ENE 4.6 mph - N/A   Clear
5:15 AM 68.9 °F - 61.3 °F 77% 30.17 in 10.0 mi NE 5.8 mph - N/A   Clear
5:35 AM 68.4 °F - 61.2 °F 78% 30.17 in 10.0 mi ENE 5.8 mph - N/A   Clear
5:55 AM 67.8 °F - 61.2 °F 79% 30.18 in 10.0 mi ENE 4.6 mph - N/A   Clear
6:15 AM 67.3 °F - 61.0 °F 80% 30.18 in 10.0 mi NE 4.6 mph - N/A   Clear
6:35 AM 66.4 °F - 60.8 °F 82% 30.18 in 10.0 mi ENE 4.6 mph - N/A   Clear
6:55 AM 66.0 °F - 60.8 °F 83% 30.18 in 10.0 mi East 4.6 mph - N/A   Clear
7:15 AM 65.8 °F - 60.8 °F 84% 30.18 in 10.0 mi East 4.6 mph - N/A   Clear
7:35 AM 66.7 °F - 61.0 °F 82% 30.18 in 10.0 mi East 3.5 mph - N/A   Clear
7:55 AM 68.7 °F - 61.7 °F 78% 30.18 in 10.0 mi ENE 4.6 mph - N/A   Clear
8:15 AM 70.9 °F - 62.2 °F 74% 30.19 in 10.0 mi East 6.9 mph - N/A   Clear
8:35 AM 72.0 °F - 62.6 °F 72% 30.19 in 10.0 mi ESE 8.1 mph - N/A   Clear
8:55 AM 72.5 °F - 62.6 °F 71% 30.19 in 10.0 mi ESE 6.9 mph - N/A   Clear
9:15 AM 74.3 °F - 62.4 °F 66% 30.19 in 10.0 mi ESE 8.1 mph - N/A   Clear
9:35 AM 74.8 °F - 62.1 °F 64% 30.19 in 10.0 mi East 4.6 mph - N/A   Clear
9:55 AM 75.9 °F - 61.9 °F 62% 30.19 in 10.0 mi East 5.8 mph - N/A   Clear
10:15 AM 76.8 °F - 61.3 °F 59% 30.19 in 10.0 mi East 8.1 mph - N/A   Clear
10:35 AM 76.8 °F - 60.8 °F 58% 30.20 in 10.0 mi ESE 3.5 mph - N/A   Clear
10:55 AM 77.2 °F - 59.5 °F 54% 30.20 in 10.0 mi ENE 4.6 mph - N/A   Clear
11:15 AM 78.6 °F - 59.5 °F 52% 30.20 in 10.0 mi NNE 5.8 mph - N/A   Clear
11:35 AM 78.3 °F - 59.2 °F 52% 30.19 in 10.0 mi NE 3.5 mph - N/A   Clear
11:55 AM 79.0 °F - 59.2 °F 51% 30.19 in 10.0 mi North 3.5 mph - N/A   Clear
12:15 PM 79.3 °F - 58.5 °F 49% 30.19 in 10.0 mi Calm Calm - N/A   Clear
12:35 PM 81.1 °F 81.3 °F 58.1 °F 45% 30.18 in 10.0 mi Calm Calm - N/A   Clear
12:55 PM 83.1 °F 82.2 °F 55.4 °F 38% 30.17 in 10.0 mi Calm Calm - N/A   Clear
1:15 PM 84.2 °F 83.2 °F 55.9 °F 38% 30.16 in 10.0 mi NE 8.1 mph 17.3 mph N/A   Clear
1:35 PM 84.4 °F 83.1 °F 54.5 °F 36% 30.15 in 10.0 mi East 4.6 mph - N/A   Clear
1:55 PM 86.0 °F - 52.5 °F 32% 30.14 in 10.0 mi East 11.5 mph - N/A   Clear
2:15 PM 87.8 °F - 50.2 °F 27% 30.14 in 10.0 mi East 3.5 mph 16.1 mph N/A   Clear
2:35 PM 88.2 °F - 49.5 °F 26% 30.13 in 10.0 mi East 6.9 mph - N/A   Clear
2:55 PM 88.5 °F - 46.0 °F 23% 30.12 in 10.0 mi SE 9.2 mph 16.1 mph N/A   Clear
3:15 PM 89.4 °F - 46.6 °F 23% 30.11 in 10.0 mi East 10.4 mph - N/A   Clear
3:35 PM 88.3 °F - 46.0 °F 23% 30.10 in 10.0 mi East 9.2 mph - N/A   Clear
3:55 PM 89.2 °F - 46.4 °F 23% 30.09 in 10.0 mi East 5.8 mph - N/A   Clear
4:15 PM 89.2 °F - 45.5 °F 22% 30.08 in 10.0 mi SSE 8.1 mph 17.3 mph N/A   Clear
4:35 PM 89.6 °F - 45.9 °F 22% 30.07 in 10.0 mi SSE 4.6 mph - N/A   Clear
4:55 PM 89.4 °F - 46.8 °F 23% 30.06 in 10.0 mi ESE 13.8 mph 18.4 mph N/A   Clear
5:15 PM 90.0 °F - 46.6 °F 22% 30.05 in 10.0 mi East 12.7 mph 19.6 mph N/A   Clear
5:35 PM 89.8 °F - 45.9 °F 22% 30.05 in 10.0 mi ESE 5.8 mph 16.1 mph N/A   Clear
5:55 PM 89.1 °F - 46.4 °F 23% 30.03 in 10.0 mi ESE 10.4 mph 19.6 mph N/A   Clear
6:15 PM 89.8 °F - 45.9 °F 22% 30.02 in 10.0 mi ESE 6.9 mph 17.3 mph N/A   Clear
6:35 PM 90.0 °F - 45.5 °F 21% 30.02 in 10.0 mi ESE 11.5 mph - N/A   Clear
6:55 PM 89.1 °F - 44.1 °F 21% 30.02 in 10.0 mi ESE 11.5 mph - N/A   Clear
7:15 PM 88.5 °F - 44.8 °F 22% 30.02 in 10.0 mi SSE 5.8 mph 16.1 mph N/A   Clear
7:35 PM 88.0 °F - 44.1 °F 22% 30.02 in 10.0 mi ESE 8.1 mph - N/A   Clear
7:55 PM 86.4 °F - 44.2 °F 23% 30.01 in 10.0 mi SE 8.1 mph 18.4 mph N/A   Clear
8:15 PM 85.8 °F - 44.4 °F 23% 30.02 in 10.0 mi ESE 9.2 mph - N/A   Clear
8:35 PM 84.4 °F - 45.0 °F 25% 30.02 in 10.0 mi ESE 9.2 mph - N/A   Clear
8:55 PM 82.8 °F - 44.8 °F 26% 30.03 in 10.0 mi SE 4.6 mph - N/A   Clear
9:15 PM 81.3 °F - 44.8 °F 28% 30.03 in 10.0 mi SE 6.9 mph - N/A   Clear
9:35 PM 79.7 °F - 45.0 °F 29% 30.04 in 10.0 mi SE 5.8 mph - N/A   Clear
9:55 PM 78.1 °F - 45.5 °F 32% 30.04 in 10.0 mi SE 5.8 mph - N/A   Clear
10:15 PM 76.8 °F - 45.9 °F 33% 30.05 in 10.0 mi SE 5.8 mph - N/A   Clear
10:35 PM 76.3 °F - 46.4 °F 35% 30.05 in 10.0 mi SE 4.6 mph - N/A   Clear
10:55 PM 75.4 °F - 47.3 °F 37% 30.06 in 10.0 mi SE 5.8 mph - N/A   Clear
11:15 PM 74.5 °F - 47.5 °F 38% 30.07 in 10.0 mi SE 6.9 mph - N/A   Clear
11:35 PM 74.5 °F - 48.6 °F 40% 30.07 in 10.0 mi SE 5.8 mph - N/A   Clear
11:55 PM 73.4 °F - 48.7 °F 42% 30.06 in 10.0 mi SE 5.8 mph - N/A   Clear